locationName,lineName,date,time,countIn,countOut
��Ƃ�̍L��,��������,2022/4/1,0:00,11,9
��Ƃ�̍L��,��������,2022/4/1,1:00,5,0
��Ƃ�̍L��,��������,2022/4/1,2:00,9,3
��Ƃ�̍L��,��������,2022/4/1,3:00,7,2
��Ƃ�̍L��,��������,2022/4/1,4:00,7,1
��Ƃ�̍L��,��������,2022/4/1,5:00,23,4
��Ƃ�̍L��,��������,2022/4/1,6:00,16,8
��Ƃ�̍L��,��������,2022/4/1,7:00,53,26
��Ƃ�̍L��,��������,2022/4/1,8:00,68,37
��Ƃ�̍L��,��������,2022/4/1,9:00,58,33
��Ƃ�̍L��,��������,2022/4/1,10:00,109,48
��Ƃ�̍L��,��������,2022/4/1,11:00,114,64
��Ƃ�̍L��,��������,2022/4/1,12:00,125,76
��Ƃ�̍L��,��������,2022/4/1,13:00,144,53
��Ƃ�̍L��,��������,2022/4/1,14:00,114,79
��Ƃ�̍L��,��������,2022/4/1,15:00,105,68
��Ƃ�̍L��,��������,2022/4/1,16:00,88,55
��Ƃ�̍L��,��������,2022/4/1,17:00,119,55
��Ƃ�̍L��,��������,2022/4/1,18:00,79,68
��Ƃ�̍L��,��������,2022/4/1,19:00,61,51
��Ƃ�̍L��,��������,2022/4/1,20:00,45,22
��Ƃ�̍L��,��������,2022/4/1,21:00,33,17
��Ƃ�̍L��,��������,2022/4/1,22:00,41,17
��Ƃ�̍L��,��������,2022/4/1,23:00,32,14
��Ƃ�̍L��,��������,2022/4/2,0:00,16,15
��Ƃ�̍L��,��������,2022/4/2,1:00,10,3
��Ƃ�̍L��,��������,2022/4/2,2:00,8,2
��Ƃ�̍L��,��������,2022/4/2,3:00,12,1
��Ƃ�̍L��,��������,2022/4/2,4:00,8,4
��Ƃ�̍L��,��������,2022/4/2,5:00,18,3
��Ƃ�̍L��,��������,2022/4/2,6:00,22,13
��Ƃ�̍L��,��������,2022/4/2,7:00,38,21
��Ƃ�̍L��,��������,2022/4/2,8:00,72,42
��Ƃ�̍L��,��������,2022/4/2,9:00,117,68
��Ƃ�̍L��,��������,2022/4/2,10:00,161,77
��Ƃ�̍L��,��������,2022/4/2,11:00,175,101
��Ƃ�̍L��,��������,2022/4/2,12:00,199,122
��Ƃ�̍L��,��������,2022/4/2,13:00,196,121
��Ƃ�̍L��,��������,2022/4/2,14:00,207,120
��Ƃ�̍L��,��������,2022/4/2,15:00,218,110
��Ƃ�̍L��,��������,2022/4/2,16:00,147,115
��Ƃ�̍L��,��������,2022/4/2,17:00,172,125
��Ƃ�̍L��,��������,2022/4/2,18:00,154,98
��Ƃ�̍L��,��������,2022/4/2,19:00,90,62
��Ƃ�̍L��,��������,2022/4/2,20:00,67,51
��Ƃ�̍L��,��������,2022/4/2,21:00,57,38
��Ƃ�̍L��,��������,2022/4/2,22:00,35,31
��Ƃ�̍L��,��������,2022/4/2,23:00,25,13
��Ƃ�̍L��,��������,2022/4/3,0:00,27,19
��Ƃ�̍L��,��������,2022/4/3,1:00,16,10
��Ƃ�̍L��,��������,2022/4/3,2:00,18,2
��Ƃ�̍L��,��������,2022/4/3,3:00,10,5
��Ƃ�̍L��,��������,2022/4/3,4:00,6,3
��Ƃ�̍L��,��������,2022/4/3,5:00,16,6
��Ƃ�̍L��,��������,2022/4/3,6:00,28,14
��Ƃ�̍L��,��������,2022/4/3,7:00,46,18
��Ƃ�̍L��,��������,2022/4/3,8:00,77,27
��Ƃ�̍L��,��������,2022/4/3,9:00,88,32
��Ƃ�̍L��,��������,2022/4/3,10:00,159,59
��Ƃ�̍L��,��������,2022/4/3,11:00,193,94
��Ƃ�̍L��,��������,2022/4/3,12:00,226,118
��Ƃ�̍L��,��������,2022/4/3,13:00,194,93
��Ƃ�̍L��,��������,2022/4/3,14:00,186,132
��Ƃ�̍L��,��������,2022/4/3,15:00,188,89
��Ƃ�̍L��,��������,2022/4/3,16:00,185,115
��Ƃ�̍L��,��������,2022/4/3,17:00,132,98
��Ƃ�̍L��,��������,2022/4/3,18:00,82,44
��Ƃ�̍L��,��������,2022/4/3,19:00,45,39
��Ƃ�̍L��,��������,2022/4/3,20:00,42,19
��Ƃ�̍L��,��������,2022/4/3,21:00,31,21
��Ƃ�̍L��,��������,2022/4/3,22:00,26,5
��Ƃ�̍L��,��������,2022/4/3,23:00,14,4
��Ƃ�̍L��,��������,2022/4/4,0:00,5,2
��Ƃ�̍L��,��������,2022/4/4,1:00,2,3
��Ƃ�̍L��,��������,2022/4/4,2:00,7,3
��Ƃ�̍L��,��������,2022/4/4,3:00,5,1
��Ƃ�̍L��,��������,2022/4/4,4:00,5,4
��Ƃ�̍L��,��������,2022/4/4,5:00,19,3
��Ƃ�̍L��,��������,2022/4/4,6:00,21,7
��Ƃ�̍L��,��������,2022/4/4,7:00,50,25
��Ƃ�̍L��,��������,2022/4/4,8:00,60,30
��Ƃ�̍L��,��������,2022/4/4,9:00,68,25
��Ƃ�̍L��,��������,2022/4/4,10:00,76,46
��Ƃ�̍L��,��������,2022/4/4,11:00,155,76
��Ƃ�̍L��,��������,2022/4/4,12:00,145,74
��Ƃ�̍L��,��������,2022/4/4,13:00,102,67
��Ƃ�̍L��,��������,2022/4/4,14:00,123,71
��Ƃ�̍L��,��������,2022/4/4,15:00,117,62
��Ƃ�̍L��,��������,2022/4/4,16:00,101,58
��Ƃ�̍L��,��������,2022/4/4,17:00,107,35
��Ƃ�̍L��,��������,2022/4/4,18:00,61,30
��Ƃ�̍L��,��������,2022/4/4,19:00,40,23
��Ƃ�̍L��,��������,2022/4/4,20:00,51,24
��Ƃ�̍L��,��������,2022/4/4,21:00,41,23
��Ƃ�̍L��,��������,2022/4/4,22:00,15,18
��Ƃ�̍L��,��������,2022/4/4,23:00,5,9
��Ƃ�̍L��,��������,2022/4/5,0:00,3,2
��Ƃ�̍L��,��������,2022/4/5,1:00,8,0
��Ƃ�̍L��,��������,2022/4/5,2:00,3,2
��Ƃ�̍L��,��������,2022/4/5,3:00,7,2
��Ƃ�̍L��,��������,2022/4/5,4:00,5,4
��Ƃ�̍L��,��������,2022/4/5,5:00,21,1
��Ƃ�̍L��,��������,2022/4/5,6:00,23,10
��Ƃ�̍L��,��������,2022/4/5,7:00,39,21
��Ƃ�̍L��,��������,2022/4/5,8:00,46,33
��Ƃ�̍L��,��������,2022/4/5,9:00,81,31
��Ƃ�̍L��,��������,2022/4/5,10:00,109,54
��Ƃ�̍L��,��������,2022/4/5,11:00,113,39
��Ƃ�̍L��,��������,2022/4/5,12:00,128,63
��Ƃ�̍L��,��������,2022/4/5,13:00,117,51
��Ƃ�̍L��,��������,2022/4/5,14:00,107,46
��Ƃ�̍L��,��������,2022/4/5,15:00,113,91
��Ƃ�̍L��,��������,2022/4/5,16:00,71,49
��Ƃ�̍L��,��������,2022/4/5,17:00,98,48
��Ƃ�̍L��,��������,2022/4/5,18:00,64,31
��Ƃ�̍L��,��������,2022/4/5,19:00,44,18
��Ƃ�̍L��,��������,2022/4/5,20:00,63,24
��Ƃ�̍L��,��������,2022/4/5,21:00,36,22
��Ƃ�̍L��,��������,2022/4/5,22:00,15,14
��Ƃ�̍L��,��������,2022/4/5,23:00,20,6
��Ƃ�̍L��,��������,2022/4/6,0:00,10,3
��Ƃ�̍L��,��������,2022/4/6,1:00,9,5
��Ƃ�̍L��,��������,2022/4/6,2:00,5,5
��Ƃ�̍L��,��������,2022/4/6,3:00,4,1
��Ƃ�̍L��,��������,2022/4/6,4:00,4,4
��Ƃ�̍L��,��������,2022/4/6,5:00,21,4
��Ƃ�̍L��,��������,2022/4/6,6:00,23,5
��Ƃ�̍L��,��������,2022/4/6,7:00,48,20
��Ƃ�̍L��,��������,2022/4/6,8:00,51,27
��Ƃ�̍L��,��������,2022/4/6,9:00,52,21
��Ƃ�̍L��,��������,2022/4/6,10:00,84,43
��Ƃ�̍L��,��������,2022/4/6,11:00,59,45
��Ƃ�̍L��,��������,2022/4/6,12:00,118,43
��Ƃ�̍L��,��������,2022/4/6,13:00,136,39
��Ƃ�̍L��,��������,2022/4/6,14:00,76,50
��Ƃ�̍L��,��������,2022/4/6,15:00,66,39
��Ƃ�̍L��,��������,2022/4/6,16:00,96,58
��Ƃ�̍L��,��������,2022/4/6,17:00,84,39
��Ƃ�̍L��,��������,2022/4/6,18:00,57,25
��Ƃ�̍L��,��������,2022/4/6,19:00,31,23
��Ƃ�̍L��,��������,2022/4/6,20:00,43,17
��Ƃ�̍L��,��������,2022/4/6,21:00,36,23
��Ƃ�̍L��,��������,2022/4/6,22:00,14,10
��Ƃ�̍L��,��������,2022/4/6,23:00,6,7
��Ƃ�̍L��,��������,2022/4/7,0:00,6,8
��Ƃ�̍L��,��������,2022/4/7,1:00,13,4
��Ƃ�̍L��,��������,2022/4/7,2:00,5,0
��Ƃ�̍L��,��������,2022/4/7,3:00,7,0
��Ƃ�̍L��,��������,2022/4/7,4:00,13,3
��Ƃ�̍L��,��������,2022/4/7,5:00,17,3
��Ƃ�̍L��,��������,2022/4/7,6:00,28,8
��Ƃ�̍L��,��������,2022/4/7,7:00,40,31
��Ƃ�̍L��,��������,2022/4/7,8:00,38,14
��Ƃ�̍L��,��������,2022/4/7,9:00,61,28
��Ƃ�̍L��,��������,2022/4/7,10:00,81,36
��Ƃ�̍L��,��������,2022/4/7,11:00,74,52
��Ƃ�̍L��,��������,2022/4/7,12:00,111,62
��Ƃ�̍L��,��������,2022/4/7,13:00,68,31
��Ƃ�̍L��,��������,2022/4/7,14:00,65,35
��Ƃ�̍L��,��������,2022/4/7,15:00,78,36
��Ƃ�̍L��,��������,2022/4/7,16:00,58,33
��Ƃ�̍L��,��������,2022/4/7,17:00,76,32
��Ƃ�̍L��,��������,2022/4/7,18:00,43,20
��Ƃ�̍L��,��������,2022/4/7,19:00,35,18
��Ƃ�̍L��,��������,2022/4/7,20:00,23,14
��Ƃ�̍L��,��������,2022/4/7,21:00,32,13
��Ƃ�̍L��,��������,2022/4/7,22:00,13,9
��Ƃ�̍L��,��������,2022/4/7,23:00,11,3
��Ƃ�̍L��,��������,2022/4/8,0:00,9,6
��Ƃ�̍L��,��������,2022/4/8,1:00,8,2
��Ƃ�̍L��,��������,2022/4/8,2:00,3,1
��Ƃ�̍L��,��������,2022/4/8,3:00,9,4
��Ƃ�̍L��,��������,2022/4/8,4:00,4,2
��Ƃ�̍L��,��������,2022/4/8,5:00,21,1
��Ƃ�̍L��,��������,2022/4/8,6:00,28,7
��Ƃ�̍L��,��������,2022/4/8,7:00,54,32
��Ƃ�̍L��,��������,2022/4/8,8:00,34,32
��Ƃ�̍L��,��������,2022/4/8,9:00,58,20
��Ƃ�̍L��,��������,2022/4/8,10:00,80,38
��Ƃ�̍L��,��������,2022/4/8,11:00,75,57
��Ƃ�̍L��,��������,2022/4/8,12:00,69,48
��Ƃ�̍L��,��������,2022/4/8,13:00,81,31
��Ƃ�̍L��,��������,2022/4/8,14:00,76,34
��Ƃ�̍L��,��������,2022/4/8,15:00,102,47
��Ƃ�̍L��,��������,2022/4/8,16:00,70,38
��Ƃ�̍L��,��������,2022/4/8,17:00,107,36
��Ƃ�̍L��,��������,2022/4/8,18:00,92,32
��Ƃ�̍L��,��������,2022/4/8,19:00,51,26
��Ƃ�̍L��,��������,2022/4/8,20:00,44,20
��Ƃ�̍L��,��������,2022/4/8,21:00,47,24
��Ƃ�̍L��,��������,2022/4/8,22:00,25,25
��Ƃ�̍L��,��������,2022/4/8,23:00,31,10
��Ƃ�̍L��,��������,2022/4/9,0:00,16,18
��Ƃ�̍L��,��������,2022/4/9,1:00,30,3
��Ƃ�̍L��,��������,2022/4/9,2:00,9,7
��Ƃ�̍L��,��������,2022/4/9,3:00,13,4
��Ƃ�̍L��,��������,2022/4/9,4:00,6,2
��Ƃ�̍L��,��������,2022/4/9,5:00,20,6
��Ƃ�̍L��,��������,2022/4/9,6:00,24,14
��Ƃ�̍L��,��������,2022/4/9,7:00,29,15
��Ƃ�̍L��,��������,2022/4/9,8:00,42,18
��Ƃ�̍L��,��������,2022/4/9,9:00,67,22
��Ƃ�̍L��,��������,2022/4/9,10:00,85,45
��Ƃ�̍L��,��������,2022/4/9,11:00,108,69
��Ƃ�̍L��,��������,2022/4/9,12:00,149,60
��Ƃ�̍L��,��������,2022/4/9,13:00,134,56
��Ƃ�̍L��,��������,2022/4/9,14:00,121,63
��Ƃ�̍L��,��������,2022/4/9,15:00,95,59
��Ƃ�̍L��,��������,2022/4/9,16:00,107,45
��Ƃ�̍L��,��������,2022/4/9,17:00,87,48
��Ƃ�̍L��,��������,2022/4/9,18:00,52,33
��Ƃ�̍L��,��������,2022/4/9,19:00,37,26
��Ƃ�̍L��,��������,2022/4/9,20:00,32,12
��Ƃ�̍L��,��������,2022/4/9,21:00,35,28
��Ƃ�̍L��,��������,2022/4/9,22:00,21,17
��Ƃ�̍L��,��������,2022/4/9,23:00,33,10
��Ƃ�̍L��,��������,2022/4/10,0:00,27,8
��Ƃ�̍L��,��������,2022/4/10,1:00,17,5
��Ƃ�̍L��,��������,2022/4/10,2:00,15,4
��Ƃ�̍L��,��������,2022/4/10,3:00,8,4
��Ƃ�̍L��,��������,2022/4/10,4:00,7,1
��Ƃ�̍L��,��������,2022/4/10,5:00,16,7
��Ƃ�̍L��,��������,2022/4/10,6:00,24,7
��Ƃ�̍L��,��������,2022/4/10,7:00,42,14
��Ƃ�̍L��,��������,2022/4/10,8:00,40,13
��Ƃ�̍L��,��������,2022/4/10,9:00,44,22
��Ƃ�̍L��,��������,2022/4/10,10:00,88,34
��Ƃ�̍L��,��������,2022/4/10,11:00,104,43
��Ƃ�̍L��,��������,2022/4/10,12:00,118,75
��Ƃ�̍L��,��������,2022/4/10,13:00,155,61
��Ƃ�̍L��,��������,2022/4/10,14:00,138,65
��Ƃ�̍L��,��������,2022/4/10,15:00,108,63
��Ƃ�̍L��,��������,2022/4/10,16:00,85,37
��Ƃ�̍L��,��������,2022/4/10,17:00,68,30
��Ƃ�̍L��,��������,2022/4/10,18:00,45,12
��Ƃ�̍L��,��������,2022/4/10,19:00,42,20
��Ƃ�̍L��,��������,2022/4/10,20:00,14,12
��Ƃ�̍L��,��������,2022/4/10,21:00,19,5
��Ƃ�̍L��,��������,2022/4/10,22:00,5,4
��Ƃ�̍L��,��������,2022/4/10,23:00,9,1
��Ƃ�̍L��,��������,2022/4/11,0:00,1,2
��Ƃ�̍L��,��������,2022/4/11,1:00,2,2
��Ƃ�̍L��,��������,2022/4/11,2:00,2,2
��Ƃ�̍L��,��������,2022/4/11,3:00,1,0
��Ƃ�̍L��,��������,2022/4/11,4:00,4,1
��Ƃ�̍L��,��������,2022/4/11,5:00,15,2
��Ƃ�̍L��,��������,2022/4/11,6:00,21,3
��Ƃ�̍L��,��������,2022/4/11,7:00,44,15
��Ƃ�̍L��,��������,2022/4/11,8:00,47,37
��Ƃ�̍L��,��������,2022/4/11,9:00,50,13
��Ƃ�̍L��,��������,2022/4/11,10:00,61,32
��Ƃ�̍L��,��������,2022/4/11,11:00,60,26
��Ƃ�̍L��,��������,2022/4/11,12:00,79,27
��Ƃ�̍L��,��������,2022/4/11,13:00,64,36
��Ƃ�̍L��,��������,2022/4/11,14:00,99,55
��Ƃ�̍L��,��������,2022/4/11,15:00,86,53
��Ƃ�̍L��,��������,2022/4/11,16:00,72,38
��Ƃ�̍L��,��������,2022/4/11,17:00,93,39
��Ƃ�̍L��,��������,2022/4/11,18:00,99,32
��Ƃ�̍L��,��������,2022/4/11,19:00,48,23
��Ƃ�̍L��,��������,2022/4/11,20:00,34,13
��Ƃ�̍L��,��������,2022/4/11,21:00,31,19
��Ƃ�̍L��,��������,2022/4/11,22:00,16,12
��Ƃ�̍L��,��������,2022/4/11,23:00,7,5
��Ƃ�̍L��,��������,2022/4/12,0:00,8,4
��Ƃ�̍L��,��������,2022/4/12,1:00,10,3
��Ƃ�̍L��,��������,2022/4/12,2:00,7,2
��Ƃ�̍L��,��������,2022/4/12,3:00,1,3
��Ƃ�̍L��,��������,2022/4/12,4:00,11,1
��Ƃ�̍L��,��������,2022/4/12,5:00,19,5
��Ƃ�̍L��,��������,2022/4/12,6:00,22,9
��Ƃ�̍L��,��������,2022/4/12,7:00,56,20
��Ƃ�̍L��,��������,2022/4/12,8:00,49,42
��Ƃ�̍L��,��������,2022/4/12,9:00,50,27
��Ƃ�̍L��,��������,2022/4/12,10:00,51,32
��Ƃ�̍L��,��������,2022/4/12,11:00,61,34
��Ƃ�̍L��,��������,2022/4/12,12:00,66,28
��Ƃ�̍L��,��������,2022/4/12,13:00,66,26
��Ƃ�̍L��,��������,2022/4/12,14:00,54,25
��Ƃ�̍L��,��������,2022/4/12,15:00,47,28
��Ƃ�̍L��,��������,2022/4/12,16:00,68,31
��Ƃ�̍L��,��������,2022/4/12,17:00,73,39
��Ƃ�̍L��,��������,2022/4/12,18:00,79,31
��Ƃ�̍L��,��������,2022/4/12,19:00,42,30
��Ƃ�̍L��,��������,2022/4/12,20:00,48,22
��Ƃ�̍L��,��������,2022/4/12,21:00,32,16
��Ƃ�̍L��,��������,2022/4/12,22:00,13,7
��Ƃ�̍L��,��������,2022/4/12,23:00,14,7
��Ƃ�̍L��,��������,2022/4/13,0:00,11,4
��Ƃ�̍L��,��������,2022/4/13,1:00,8,1
��Ƃ�̍L��,��������,2022/4/13,2:00,7,2
��Ƃ�̍L��,��������,2022/4/13,3:00,7,1
��Ƃ�̍L��,��������,2022/4/13,4:00,3,0
��Ƃ�̍L��,��������,2022/4/13,5:00,18,4
��Ƃ�̍L��,��������,2022/4/13,6:00,26,10
��Ƃ�̍L��,��������,2022/4/13,7:00,53,21
��Ƃ�̍L��,��������,2022/4/13,8:00,42,30
��Ƃ�̍L��,��������,2022/4/13,9:00,51,29
��Ƃ�̍L��,��������,2022/4/13,10:00,66,26
��Ƃ�̍L��,��������,2022/4/13,11:00,62,21
��Ƃ�̍L��,��������,2022/4/13,12:00,92,39
��Ƃ�̍L��,��������,2022/4/13,13:00,65,39
��Ƃ�̍L��,��������,2022/4/13,14:00,58,28
��Ƃ�̍L��,��������,2022/4/13,15:00,44,36
��Ƃ�̍L��,��������,2022/4/13,16:00,83,23
��Ƃ�̍L��,��������,2022/4/13,17:00,62,41
��Ƃ�̍L��,��������,2022/4/13,18:00,61,30
��Ƃ�̍L��,��������,2022/4/13,19:00,43,22
��Ƃ�̍L��,��������,2022/4/13,20:00,39,15
��Ƃ�̍L��,��������,2022/4/13,21:00,34,12
��Ƃ�̍L��,��������,2022/4/13,22:00,21,6
��Ƃ�̍L��,��������,2022/4/13,23:00,13,7
��Ƃ�̍L��,��������,2022/4/14,0:00,9,4
��Ƃ�̍L��,��������,2022/4/14,1:00,10,1
��Ƃ�̍L��,��������,2022/4/14,2:00,6,3
��Ƃ�̍L��,��������,2022/4/14,3:00,7,2
��Ƃ�̍L��,��������,2022/4/14,4:00,6,3
��Ƃ�̍L��,��������,2022/4/14,5:00,19,6
��Ƃ�̍L��,��������,2022/4/14,6:00,26,11
��Ƃ�̍L��,��������,2022/4/14,7:00,57,34
��Ƃ�̍L��,��������,2022/4/14,8:00,51,61
��Ƃ�̍L��,��������,2022/4/14,9:00,57,33
��Ƃ�̍L��,��������,2022/4/14,10:00,80,49
��Ƃ�̍L��,��������,2022/4/14,11:00,70,46
��Ƃ�̍L��,��������,2022/4/14,12:00,89,63
��Ƃ�̍L��,��������,2022/4/14,13:00,53,27
��Ƃ�̍L��,��������,2022/4/14,14:00,53,37
��Ƃ�̍L��,��������,2022/4/14,15:00,164,68
��Ƃ�̍L��,��������,2022/4/14,16:00,96,62
��Ƃ�̍L��,��������,2022/4/14,17:00,93,27
��Ƃ�̍L��,��������,2022/4/14,18:00,94,22
��Ƃ�̍L��,��������,2022/4/14,19:00,27,24
��Ƃ�̍L��,��������,2022/4/14,20:00,51,21
��Ƃ�̍L��,��������,2022/4/14,21:00,37,10
��Ƃ�̍L��,��������,2022/4/14,22:00,22,4
��Ƃ�̍L��,��������,2022/4/14,23:00,10,4
��Ƃ�̍L��,��������,2022/4/15,0:00,14,2
��Ƃ�̍L��,��������,2022/4/15,1:00,5,2
��Ƃ�̍L��,��������,2022/4/15,2:00,4,0
��Ƃ�̍L��,��������,2022/4/15,3:00,12,2
��Ƃ�̍L��,��������,2022/4/15,4:00,4,1
��Ƃ�̍L��,��������,2022/4/15,5:00,13,4
��Ƃ�̍L��,��������,2022/4/15,6:00,23,8
��Ƃ�̍L��,��������,2022/4/15,7:00,77,30
��Ƃ�̍L��,��������,2022/4/15,8:00,89,52
��Ƃ�̍L��,��������,2022/4/15,9:00,130,52
��Ƃ�̍L��,��������,2022/4/15,10:00,117,68
��Ƃ�̍L��,��������,2022/4/15,11:00,141,80
��Ƃ�̍L��,��������,2022/4/15,12:00,150,90
��Ƃ�̍L��,��������,2022/4/15,13:00,152,82
��Ƃ�̍L��,��������,2022/4/15,14:00,107,86
��Ƃ�̍L��,��������,2022/4/15,15:00,114,64
��Ƃ�̍L��,��������,2022/4/15,16:00,100,46
��Ƃ�̍L��,��������,2022/4/15,17:00,151,75
��Ƃ�̍L��,��������,2022/4/15,18:00,136,42
��Ƃ�̍L��,��������,2022/4/15,19:00,49,32
��Ƃ�̍L��,��������,2022/4/15,20:00,61,22
��Ƃ�̍L��,��������,2022/4/15,21:00,27,27
��Ƃ�̍L��,��������,2022/4/15,22:00,41,24
��Ƃ�̍L��,��������,2022/4/15,23:00,22,12
��Ƃ�̍L��,��������,2022/4/16,0:00,20,8
��Ƃ�̍L��,��������,2022/4/16,1:00,19,4
��Ƃ�̍L��,��������,2022/4/16,2:00,7,5
��Ƃ�̍L��,��������,2022/4/16,3:00,8,2
��Ƃ�̍L��,��������,2022/4/16,4:00,7,2
��Ƃ�̍L��,��������,2022/4/16,5:00,11,3
��Ƃ�̍L��,��������,2022/4/16,6:00,14,8
��Ƃ�̍L��,��������,2022/4/16,7:00,41,13
��Ƃ�̍L��,��������,2022/4/16,8:00,55,25
��Ƃ�̍L��,��������,2022/4/16,9:00,74,29
��Ƃ�̍L��,��������,2022/4/16,10:00,92,47
��Ƃ�̍L��,��������,2022/4/16,11:00,82,61
��Ƃ�̍L��,��������,2022/4/16,12:00,147,76
��Ƃ�̍L��,��������,2022/4/16,13:00,144,73
��Ƃ�̍L��,��������,2022/4/16,14:00,131,64
��Ƃ�̍L��,��������,2022/4/16,15:00,119,65
��Ƃ�̍L��,��������,2022/4/16,16:00,121,79
��Ƃ�̍L��,��������,2022/4/16,17:00,122,79
��Ƃ�̍L��,��������,2022/4/16,18:00,94,70
��Ƃ�̍L��,��������,2022/4/16,19:00,66,33
��Ƃ�̍L��,��������,2022/4/16,20:00,38,33
��Ƃ�̍L��,��������,2022/4/16,21:00,55,17
��Ƃ�̍L��,��������,2022/4/16,22:00,38,14
��Ƃ�̍L��,��������,2022/4/16,23:00,18,13
��Ƃ�̍L��,��������,2022/4/17,0:00,17,2
��Ƃ�̍L��,��������,2022/4/17,1:00,9,3
��Ƃ�̍L��,��������,2022/4/17,2:00,9,2
��Ƃ�̍L��,��������,2022/4/17,3:00,10,0
��Ƃ�̍L��,��������,2022/4/17,4:00,12,0
��Ƃ�̍L��,��������,2022/4/17,5:00,18,5
��Ƃ�̍L��,��������,2022/4/17,6:00,19,3
��Ƃ�̍L��,��������,2022/4/17,7:00,20,9
��Ƃ�̍L��,��������,2022/4/17,8:00,51,13
��Ƃ�̍L��,��������,2022/4/17,9:00,54,29
��Ƃ�̍L��,��������,2022/4/17,10:00,80,31
��Ƃ�̍L��,��������,2022/4/17,11:00,117,53
��Ƃ�̍L��,��������,2022/4/17,12:00,140,58
��Ƃ�̍L��,��������,2022/4/17,13:00,105,57
��Ƃ�̍L��,��������,2022/4/17,14:00,140,64
��Ƃ�̍L��,��������,2022/4/17,15:00,116,61
��Ƃ�̍L��,��������,2022/4/17,16:00,105,66
��Ƃ�̍L��,��������,2022/4/17,17:00,98,45
��Ƃ�̍L��,��������,2022/4/17,18:00,64,32
��Ƃ�̍L��,��������,2022/4/17,19:00,45,26
��Ƃ�̍L��,��������,2022/4/17,20:00,22,21
��Ƃ�̍L��,��������,2022/4/17,21:00,21,12
��Ƃ�̍L��,��������,2022/4/17,22:00,22,9
��Ƃ�̍L��,��������,2022/4/17,23:00,7,7
��Ƃ�̍L��,��������,2022/4/18,0:00,2,3
��Ƃ�̍L��,��������,2022/4/18,1:00,4,0
��Ƃ�̍L��,��������,2022/4/18,2:00,1,1
��Ƃ�̍L��,��������,2022/4/18,3:00,4,1
��Ƃ�̍L��,��������,2022/4/18,4:00,8,1
��Ƃ�̍L��,��������,2022/4/18,5:00,11,2
��Ƃ�̍L��,��������,2022/4/18,6:00,39,11
��Ƃ�̍L��,��������,2022/4/18,7:00,79,26
��Ƃ�̍L��,��������,2022/4/18,8:00,61,42
��Ƃ�̍L��,��������,2022/4/18,9:00,90,32
��Ƃ�̍L��,��������,2022/4/18,10:00,101,27
��Ƃ�̍L��,��������,2022/4/18,11:00,76,54
��Ƃ�̍L��,��������,2022/4/18,12:00,91,43
��Ƃ�̍L��,��������,2022/4/18,13:00,84,41
��Ƃ�̍L��,��������,2022/4/18,14:00,76,33
��Ƃ�̍L��,��������,2022/4/18,15:00,73,35
��Ƃ�̍L��,��������,2022/4/18,16:00,90,48
��Ƃ�̍L��,��������,2022/4/18,17:00,115,41
��Ƃ�̍L��,��������,2022/4/18,18:00,137,57
��Ƃ�̍L��,��������,2022/4/18,19:00,48,21
��Ƃ�̍L��,��������,2022/4/18,20:00,33,30
��Ƃ�̍L��,��������,2022/4/18,21:00,26,13
��Ƃ�̍L��,��������,2022/4/18,22:00,21,12
��Ƃ�̍L��,��������,2022/4/18,23:00,9,5
��Ƃ�̍L��,��������,2022/4/19,0:00,16,3
��Ƃ�̍L��,��������,2022/4/19,1:00,8,3
��Ƃ�̍L��,��������,2022/4/19,2:00,12,12
��Ƃ�̍L��,��������,2022/4/19,3:00,4,2
��Ƃ�̍L��,��������,2022/4/19,4:00,7,2
��Ƃ�̍L��,��������,2022/4/19,5:00,20,3
��Ƃ�̍L��,��������,2022/4/19,6:00,21,11
��Ƃ�̍L��,��������,2022/4/19,7:00,61,17
��Ƃ�̍L��,��������,2022/4/19,8:00,66,35
��Ƃ�̍L��,��������,2022/4/19,9:00,67,38
��Ƃ�̍L��,��������,2022/4/19,10:00,75,26
��Ƃ�̍L��,��������,2022/4/19,11:00,70,42
��Ƃ�̍L��,��������,2022/4/19,12:00,72,45
��Ƃ�̍L��,��������,2022/4/19,13:00,55,35
��Ƃ�̍L��,��������,2022/4/19,14:00,64,28
��Ƃ�̍L��,��������,2022/4/19,15:00,52,40
��Ƃ�̍L��,��������,2022/4/19,16:00,77,27
��Ƃ�̍L��,��������,2022/4/19,17:00,108,33
��Ƃ�̍L��,��������,2022/4/19,18:00,127,43
��Ƃ�̍L��,��������,2022/4/19,19:00,45,35
��Ƃ�̍L��,��������,2022/4/19,20:00,27,23
��Ƃ�̍L��,��������,2022/4/19,21:00,41,23
��Ƃ�̍L��,��������,2022/4/19,22:00,27,17
��Ƃ�̍L��,��������,2022/4/19,23:00,9,1
��Ƃ�̍L��,��������,2022/4/20,0:00,12,6
��Ƃ�̍L��,��������,2022/4/20,1:00,3,2
��Ƃ�̍L��,��������,2022/4/20,2:00,7,3
��Ƃ�̍L��,��������,2022/4/20,3:00,5,1
��Ƃ�̍L��,��������,2022/4/20,4:00,5,1
��Ƃ�̍L��,��������,2022/4/20,5:00,15,7
��Ƃ�̍L��,��������,2022/4/20,6:00,22,13
��Ƃ�̍L��,��������,2022/4/20,7:00,62,32
��Ƃ�̍L��,��������,2022/4/20,8:00,77,44
��Ƃ�̍L��,��������,2022/4/20,9:00,48,28
��Ƃ�̍L��,��������,2022/4/20,10:00,79,27
��Ƃ�̍L��,��������,2022/4/20,11:00,59,43
��Ƃ�̍L��,��������,2022/4/20,12:00,78,46
��Ƃ�̍L��,��������,2022/4/20,13:00,78,30
��Ƃ�̍L��,��������,2022/4/20,14:00,58,27
��Ƃ�̍L��,��������,2022/4/20,15:00,90,23
��Ƃ�̍L��,��������,2022/4/20,16:00,99,39
��Ƃ�̍L��,��������,2022/4/20,17:00,77,33
��Ƃ�̍L��,��������,2022/4/20,18:00,102,38
��Ƃ�̍L��,��������,2022/4/20,19:00,54,17
��Ƃ�̍L��,��������,2022/4/20,20:00,54,25
��Ƃ�̍L��,��������,2022/4/20,21:00,39,23
��Ƃ�̍L��,��������,2022/4/20,22:00,17,16
��Ƃ�̍L��,��������,2022/4/20,23:00,26,5
��Ƃ�̍L��,��������,2022/4/21,0:00,18,6
��Ƃ�̍L��,��������,2022/4/21,1:00,4,2
��Ƃ�̍L��,��������,2022/4/21,2:00,4,1
��Ƃ�̍L��,��������,2022/4/21,3:00,6,1
��Ƃ�̍L��,��������,2022/4/21,4:00,7,3
��Ƃ�̍L��,��������,2022/4/21,5:00,11,3
��Ƃ�̍L��,��������,2022/4/21,6:00,23,11
��Ƃ�̍L��,��������,2022/4/21,7:00,69,26
��Ƃ�̍L��,��������,2022/4/21,8:00,67,46
��Ƃ�̍L��,��������,2022/4/21,9:00,86,41
��Ƃ�̍L��,��������,2022/4/21,10:00,96,54
��Ƃ�̍L��,��������,2022/4/21,11:00,82,48
��Ƃ�̍L��,��������,2022/4/21,12:00,117,68
��Ƃ�̍L��,��������,2022/4/21,13:00,106,57
��Ƃ�̍L��,��������,2022/4/21,14:00,66,35
��Ƃ�̍L��,��������,2022/4/21,15:00,79,32
��Ƃ�̍L��,��������,2022/4/21,16:00,71,29
��Ƃ�̍L��,��������,2022/4/21,17:00,113,35
��Ƃ�̍L��,��������,2022/4/21,18:00,104,41
��Ƃ�̍L��,��������,2022/4/21,19:00,41,20
��Ƃ�̍L��,��������,2022/4/21,20:00,50,22
��Ƃ�̍L��,��������,2022/4/21,21:00,39,22
��Ƃ�̍L��,��������,2022/4/21,22:00,17,12
��Ƃ�̍L��,��������,2022/4/21,23:00,17,10
��Ƃ�̍L��,��������,2022/4/22,0:00,20,7
��Ƃ�̍L��,��������,2022/4/22,1:00,7,2
��Ƃ�̍L��,��������,2022/4/22,2:00,5,0
��Ƃ�̍L��,��������,2022/4/22,3:00,4,3
��Ƃ�̍L��,��������,2022/4/22,4:00,13,2
��Ƃ�̍L��,��������,2022/4/22,5:00,19,3
��Ƃ�̍L��,��������,2022/4/22,6:00,18,8
��Ƃ�̍L��,��������,2022/4/22,7:00,58,25
��Ƃ�̍L��,��������,2022/4/22,8:00,54,41
��Ƃ�̍L��,��������,2022/4/22,9:00,60,29
��Ƃ�̍L��,��������,2022/4/22,10:00,152,65
��Ƃ�̍L��,��������,2022/4/22,11:00,98,55
��Ƃ�̍L��,��������,2022/4/22,12:00,118,48
��Ƃ�̍L��,��������,2022/4/22,13:00,93,44
��Ƃ�̍L��,��������,2022/4/22,14:00,56,21
��Ƃ�̍L��,��������,2022/4/22,15:00,81,31
��Ƃ�̍L��,��������,2022/4/22,16:00,77,27
��Ƃ�̍L��,��������,2022/4/22,17:00,98,49
��Ƃ�̍L��,��������,2022/4/22,18:00,119,43
��Ƃ�̍L��,��������,2022/4/22,19:00,37,33
��Ƃ�̍L��,��������,2022/4/22,20:00,51,26
��Ƃ�̍L��,��������,2022/4/22,21:00,50,27
��Ƃ�̍L��,��������,2022/4/22,22:00,24,22
��Ƃ�̍L��,��������,2022/4/22,23:00,26,12
��Ƃ�̍L��,��������,2022/4/23,0:00,20,12
��Ƃ�̍L��,��������,2022/4/23,1:00,23,5
��Ƃ�̍L��,��������,2022/4/23,2:00,12,4
��Ƃ�̍L��,��������,2022/4/23,3:00,10,7
��Ƃ�̍L��,��������,2022/4/23,4:00,7,4
��Ƃ�̍L��,��������,2022/4/23,5:00,21,2
��Ƃ�̍L��,��������,2022/4/23,6:00,23,11
��Ƃ�̍L��,��������,2022/4/23,7:00,45,20
��Ƃ�̍L��,��������,2022/4/23,8:00,54,28
��Ƃ�̍L��,��������,2022/4/23,9:00,63,29
��Ƃ�̍L��,��������,2022/4/23,10:00,80,41
��Ƃ�̍L��,��������,2022/4/23,11:00,117,61
��Ƃ�̍L��,��������,2022/4/23,12:00,114,60
��Ƃ�̍L��,��������,2022/4/23,13:00,103,66
��Ƃ�̍L��,��������,2022/4/23,14:00,168,75
��Ƃ�̍L��,��������,2022/4/23,15:00,143,83
��Ƃ�̍L��,��������,2022/4/23,16:00,125,61
��Ƃ�̍L��,��������,2022/4/23,17:00,97,44
��Ƃ�̍L��,��������,2022/4/23,18:00,60,45
��Ƃ�̍L��,��������,2022/4/23,19:00,54,32
��Ƃ�̍L��,��������,2022/4/23,20:00,61,32
��Ƃ�̍L��,��������,2022/4/23,21:00,47,20
��Ƃ�̍L��,��������,2022/4/23,22:00,17,16
��Ƃ�̍L��,��������,2022/4/23,23:00,36,16
��Ƃ�̍L��,��������,2022/4/24,0:00,31,12
��Ƃ�̍L��,��������,2022/4/24,1:00,15,13
��Ƃ�̍L��,��������,2022/4/24,2:00,11,3
��Ƃ�̍L��,��������,2022/4/24,3:00,3,1
��Ƃ�̍L��,��������,2022/4/24,4:00,9,2
��Ƃ�̍L��,��������,2022/4/24,5:00,17,8
��Ƃ�̍L��,��������,2022/4/24,6:00,17,3
��Ƃ�̍L��,��������,2022/4/24,7:00,29,9
��Ƃ�̍L��,��������,2022/4/24,8:00,87,27
��Ƃ�̍L��,��������,2022/4/24,9:00,47,27
��Ƃ�̍L��,��������,2022/4/24,10:00,86,66
��Ƃ�̍L��,��������,2022/4/24,11:00,135,89
��Ƃ�̍L��,��������,2022/4/24,12:00,127,74
��Ƃ�̍L��,��������,2022/4/24,13:00,171,104
��Ƃ�̍L��,��������,2022/4/24,14:00,186,89
��Ƃ�̍L��,��������,2022/4/24,15:00,125,87
��Ƃ�̍L��,��������,2022/4/24,16:00,94,73
��Ƃ�̍L��,��������,2022/4/24,17:00,92,37
��Ƃ�̍L��,��������,2022/4/24,18:00,47,35
��Ƃ�̍L��,��������,2022/4/24,19:00,54,24
��Ƃ�̍L��,��������,2022/4/24,20:00,51,16
��Ƃ�̍L��,��������,2022/4/24,21:00,17,14
��Ƃ�̍L��,��������,2022/4/24,22:00,32,3
��Ƃ�̍L��,��������,2022/4/24,23:00,10,2
��Ƃ�̍L��,��������,2022/4/25,0:00,5,3
��Ƃ�̍L��,��������,2022/4/25,1:00,3,0
��Ƃ�̍L��,��������,2022/4/25,2:00,4,1
��Ƃ�̍L��,��������,2022/4/25,3:00,9,0
��Ƃ�̍L��,��������,2022/4/25,4:00,5,1
��Ƃ�̍L��,��������,2022/4/25,5:00,20,5
��Ƃ�̍L��,��������,2022/4/25,6:00,30,13
��Ƃ�̍L��,��������,2022/4/25,7:00,59,23
��Ƃ�̍L��,��������,2022/4/25,8:00,45,41
��Ƃ�̍L��,��������,2022/4/25,9:00,56,35
��Ƃ�̍L��,��������,2022/4/25,10:00,83,33
��Ƃ�̍L��,��������,2022/4/25,11:00,89,42
��Ƃ�̍L��,��������,2022/4/25,12:00,101,59
��Ƃ�̍L��,��������,2022/4/25,13:00,64,28
��Ƃ�̍L��,��������,2022/4/25,14:00,47,31
��Ƃ�̍L��,��������,2022/4/25,15:00,67,22
��Ƃ�̍L��,��������,2022/4/25,16:00,63,25
��Ƃ�̍L��,��������,2022/4/25,17:00,95,39
��Ƃ�̍L��,��������,2022/4/25,18:00,103,44
��Ƃ�̍L��,��������,2022/4/25,19:00,41,19
��Ƃ�̍L��,��������,2022/4/25,20:00,45,19
��Ƃ�̍L��,��������,2022/4/25,21:00,36,16
��Ƃ�̍L��,��������,2022/4/25,22:00,32,14